STARLINK-6316, 57335

Orbit data source: Space-Track

STARLINK-6316, 57335 is a payload satellite owned by SpaceX/Seattle (US) in LEO that was launched on Sun, 16 Jul 2023 UTC via an FALCON 9 launch vehicle from the Air Force Eastern Test Range (AFETR). Payload-class satellites include a variety of spacecraft equipped with specific instruments for various scientific and technological missions. These include communications satellites like Starlink; space stations such as the ISS; scientific satellites like the Hubble; Earth observation satellites from companies like Planet Labs, Umbra, and HawkEye 360; GPS; miniature CubeSats for education and research; and military/defense satellites.

Loading next visibility...
Identifier
57335, 2023-099H
Orbit
LEO
Country
Flag of USUS
Related business
Manufacturer
SpaceX/Seattle
Mission
Operational Commercial Communications
Bus & Motor
STARLINK, Unknown motor
Mass
305 kg wet, ~290 kg dry
Launch date (UTC)
2023-07-16 (3 years ago)
Launch vehicle
FALCON 9
Launch site
Air Force Eastern Test Range (AFETR)
Object type
Payload
Rocket body
Debris
Shape & HBR
Box + 1 Pan, 10.1 m
Radar Cross Section
11.087 m², Large (>1 m²)

Expand to show TLE details & history
Last TLE update: 2 days ago

TLE from 2 days ago
0 STARLINK-6316
1 57335U 23099H   26171.02508862 -.00000100  00000-0  58949-5 0  9996
2 57335  43.0024  31.3760 0001465 263.1959  96.8726 15.27576680161765
Epoch: 2026-06-20T00:36Z
TLE epoch observation values (Epoch: 2026-06-20T00:36:07.656Z)
Latitude
-0.00003°
Longitude
114.09843°
Altitude
482.955 km
Speed
7.626 km/s
True Right ascension
02h 05m 30s
True Declination
0° 00' 00"
Sunlit
Object was in daylight at epoch
Visualization orbit readout
Latitude
Unknown
Longitude
Unknown
Altitude
Unknown
Speed
Unknown
Apparent Right ascension
Unknown
Apparent Declination
Unknown
Sunlit
N/A
Visualization observer readout
Local Sidereal Time
21:30:11
Azimuth
Unknown
Elevation
Unknown
Doppler factor
Unknown
Orbital elements
Apogee altitude
486.009 km
Perigee altitude
483.998 km
Semi-major axis
6,863.141 km
Eccentricity
0.00015
Inclination
43.0024°
RAAN
31.376°
Arg. of periapsis
263.1959°
True anomaly
96.88927°
Mean anomaly
96.8726°
Eccentric anomaly
96.88093°
Mean motion
3.81732 °/min
Orbital period
94.31 mins
BSTAR
0.0000058949
Loading maneuver chart data...
Computing Atmospheric mass density...
Loading historical data...
Loading historical data...
Loading historical data...
Loading historical data...
Loading historical data...
Loading historical data...
Loading historical data...

Documentation

Showing up to 5 results
|